time_stamp(utc),avg(mph),gust(mph),direction(deg),12m_air_temp(f),sonic_u(cm/s),sonic_v(cm/s),sonic_w(cm/s),pressure,2m_air_temp(f),pyranometer(W/m^2)
"2021-01-17 00:02:39+00",14.6,16.6,,41.5,-668,56,29,998.33,40.9,0
"2021-01-17 00:07:39+00",14.3,16.3,,41.4,-651,46,22,998.46,40.8,0
"2021-01-17 00:12:39+00",13.9,16.9,,41.2,-619,58,44,998.46,40.8,0
"2021-01-17 00:17:39+00",15.7,18.7,,41.1,-704,74,35,998.46,40.7,0
"2021-01-17 00:22:39+00",16.8,18.8,,41.2,-766,51,16,998.43,40.7,0
"2021-01-17 00:27:39+00",16.1,20.1,,41.3,-730,53,46,998.56,40.7,0
"2021-01-17 00:32:39+00",18.8,21.8,,41.4,-841,56,30,998.56,40.8,0
"2021-01-17 00:37:39+00",18.6,21.6,,41.5,-835,130,44,998.49,40.9,0
"2021-01-17 00:42:39+00",17.4,19.4,,41.5,-780,160,37,998.57,40.9,0
"2021-01-17 00:47:39+00",17.8,20.8,,41.5,-797,160,62,998.49,41,0
"2021-01-17 00:52:39+00",18.9,23.9,,41.6,-831,198,51,998.55,41,0
"2021-01-17 00:57:39+00",19.4,22.4,,41.4,-868,188,48,998.64,41,0
"2021-01-17 01:02:39+00",18.7,19.7,,41.3,-825,206,28,998.63,40.9,0
"2021-01-17 01:07:39+00",18.4,21.4,,41.2,-828,187,40,998.6,40.9,0
"2021-01-17 01:12:39+00",16.8,20.8,,41.1,-733,191,27,998.68,40.7,0
"2021-01-17 01:17:39+00",17.3,20.3,,41.1,-777,176,59,998.68,40.7,0
"2021-01-17 01:22:39+00",17.8,20.8,,41.1,-801,197,37,998.67,40.6,0
"2021-01-17 01:27:39+00",16.3,20.3,,41,-720,198,31,998.65,40.5,0
"2021-01-17 01:32:39+00",16.3,18.3,,40.9,-722,179,36,998.69,40.4,0
"2021-01-17 01:37:39+00",15.0,17.0,,40.8,-675,129,41,998.68,40.3,0
"2021-01-17 01:42:39+00",16.0,19.0,,40.7,-729,149,42,998.7,40.2,0
"2021-01-17 01:47:39+00",18.4,21.4,,40.7,-802,248,30,998.75,40.1,0
"2021-01-17 01:52:39+00",17.5,19.5,,40.6,-757,214,34,998.73,40.1,0
"2021-01-17 01:57:39+00",17.0,19.0,,40.6,-757,194,38,998.75,40,0
"2021-01-17 02:02:39+00",18.0,20.0,,40.5,-785,177,64,998.72,40,0
"2021-01-17 02:07:39+00",16.5,19.5,,40.5,-727,194,35,998.82,40,0
"2021-01-17 02:12:39+00",19.2,21.2,,40.5,-848,192,30,998.76,40,0
"2021-01-17 02:17:39+00",19.4,21.4,,40.5,-850,189,47,998.84,40.1,0
"2021-01-17 02:22:39+00",19.4,24.4,,40.6,-860,161,52,998.84,40.1,0
"2021-01-17 02:27:39+00",19.6,22.6,,40.6,-877,123,50,998.86,40.2,0
"2021-01-17 02:32:39+00",19.1,21.1,,40.6,-852,148,67,998.91,40.3,0
"2021-01-17 02:37:39+00",21.9,25.9,,40.7,-982,148,60,998.93,40.3,0
"2021-01-17 02:42:39+00",22.0,24.0,,40.6,-983,209,37,998.97,40.3,0
"2021-01-17 02:47:39+00",22.0,25.0,,40.6,-984,205,53,998.93,40.3,0
"2021-01-17 02:52:39+00",17.6,20.6,,40.6,-813,165,60,998.98,40.3,0
"2021-01-17 02:57:39+00",20.4,23.4,,40.5,-915,185,48,999.04,40.2,0
"2021-01-17 03:02:39+00",19.3,22.3,,40.5,-879,140,56,999.09,40.2,0
"2021-01-17 03:07:39+00",17.0,19.0,,40.3,-750,119,75,999.27,40.2,0
"2021-01-17 03:12:39+00",16.8,18.8,,40.1,-751,84,27,999.31,40,0
"2021-01-17 03:17:39+00",15.6,17.6,,40,-701,80,39,999.44,39.9,0
"2021-01-17 03:22:39+00",16.5,19.5,,40.1,-745,137,44,999.52,39.9,0
"2021-01-17 03:27:39+00",19.8,21.8,,40,-886,157,22,999.55,39.8,0
"2021-01-17 03:32:39+00",18.4,22.4,,39.9,-861,135,43,999.6,39.7,0
"2021-01-17 03:37:39+00",17.4,21.4,,39.8,-768,118,61,999.67,39.7,0
"2021-01-17 03:42:39+00",19.1,21.1,,39.7,-849,79,37,999.7,39.6,0
"2021-01-17 03:47:39+00",21.8,23.8,,39.7,-988,100,38,999.84,39.5,0
"2021-01-17 03:52:39+00",17.8,22.8,,39.7,-811,86,54,999.89,39.5,0
"2021-01-17 03:57:39+00",19.7,21.7,,39.7,-893,48,40,1000.02,39.5,0
"2021-01-17 04:02:39+00",19.3,22.3,,39.4,-868,-9,0,1000.09,39.3,0
"2021-01-17 04:07:39+00",16.3,19.3,,39.2,-729,23,26,1000.31,39.2,0
"2021-01-17 04:12:39+00",17.7,20.7,,39.1,-779,1,38,1000.36,38.9,0
"2021-01-17 04:17:39+00",16.4,19.4,,38.8,-712,-68,26,1000.41,38.7,0
"2021-01-17 04:22:39+00",17.4,20.4,,38.8,-766,-50,5,1000.47,38.6,0
"2021-01-17 04:27:39+00",15.7,18.7,,38.6,-711,-65,20,1000.61,38.4,0
"2021-01-17 04:32:39+00",16.7,18.7,,38.6,-731,-102,26,1000.7,38.3,0
"2021-01-17 04:37:39+00",17.7,21.7,,38.6,-795,-75,18,1000.74,38.2,0
"2021-01-17 04:42:39+00",18.4,20.4,,38.6,-836,-14,10,1000.76,38.3,0
"2021-01-17 04:47:39+00",16.4,19.4,,38.4,-742,-65,38,1000.87,38.2,0
"2021-01-17 04:52:39+00",19.3,22.3,,38.4,-843,-71,17,1000.95,38.2,0
"2021-01-17 04:57:39+00",17.6,21.6,,38.4,-784,-45,57,1000.93,38.2,0
"2021-01-17 05:02:39+00",20.8,23.8,,38.4,-934,31,20,1001.08,38.2,0
"2021-01-17 05:07:39+00",22.9,24.9,,38.5,-1032,16,41,1001.09,38.2,0
"2021-01-17 05:12:39+00",20.5,24.5,,38.6,-928,85,67,1001.04,38.4,0
"2021-01-17 05:17:39+00",21.2,23.2,,38.6,-955,9,34,1001.15,38.4,0
"2021-01-17 05:22:39+00",20.5,23.5,,38.4,-924,0,27,1001.07,38.3,0
"2021-01-17 05:27:39+00",21.3,25.3,,38.4,-961,41,62,1001.3,38.3,0
"2021-01-17 05:32:39+00",21.2,24.2,,38.4,-963,76,45,1001.31,38.3,0
"2021-01-17 05:37:39+00",20.2,23.2,,38.3,-896,54,55,1001.41,38.3,0
"2021-01-17 05:42:39+00",21.2,24.2,,38.3,-965,71,44,1001.52,38.2,0
"2021-01-17 05:47:39+00",17.9,22.9,,38,-809,-2,56,1001.63,38,0
"2021-01-17 05:52:39+00",23.3,28.3,,38,-1056,51,35,1001.85,37.9,0
"2021-01-17 05:57:39+00",21.6,26.6,,37.9,-977,16,35,1001.81,37.8,0
"2021-01-17 06:02:39+00",19.0,22.0,,37.7,-869,-44,31,1001.81,37.8,0
"2021-01-17 06:07:39+00",20.7,23.7,,37.8,-946,-22,33,1001.81,37.6,0
"2021-01-17 06:12:39+00",20.0,23.0,,37.7,-902,-60,27,1001.88,37.6,0
"2021-01-17 06:17:39+00",19.9,22.9,,37.5,-895,-69,23,1002.03,37.5,0
"2021-01-17 06:22:39+00",20.9,23.9,,37.5,-949,-75,32,1002.17,37.4,0
"2021-01-17 06:27:39+00",21.4,25.4,,37.6,-952,-44,34,1002.34,37.4,0
"2021-01-17 06:32:39+00",23.0,26.0,,37.5,-1018,-141,12,1002.35,37.3,0
"2021-01-17 06:37:39+00",21.1,24.1,,37.4,-909,-155,52,1002.65,37.3,0
"2021-01-17 06:42:39+00",21.3,25.3,,37.3,-912,-139,18,1002.75,37.1,0
"2021-01-17 06:47:39+00",17.5,20.5,,37.2,-769,-128,24,1002.8,37,0
"2021-01-17 06:52:39+00",17.4,19.4,,37.2,-764,-49,38,1002.85,37,0
"2021-01-17 06:57:39+00",19.0,23.0,,37.3,-837,-149,16,1002.9,36.9,0
"2021-01-17 07:02:39+00",19.0,23.0,,37.3,-832,-108,43,1002.82,36.9,0
"2021-01-17 07:07:39+00",20.3,24.3,,37.3,-860,-169,49,1002.83,36.9,0
"2021-01-17 07:12:39+00",19.2,23.2,,37.2,-837,-79,41,1002.93,36.9,0
"2021-01-17 07:17:39+00",18.5,21.5,,37.1,-824,-99,55,1002.95,36.8,0
"2021-01-17 07:22:39+00",17.1,21.1,,37,-761,-43,55,1002.89,36.8,0
"2021-01-17 07:27:39+00",18.8,21.8,,37,-800,-138,14,1003.03,36.7,0
"2021-01-17 07:32:39+00",15.4,18.4,,36.9,-659,-144,47,1003.13,36.6,0
"2021-01-17 07:37:39+00",18.5,23.5,,36.9,-770,-179,38,1003.21,36.5,0
"2021-01-17 07:42:39+00",16.6,19.6,,36.7,-686,-165,37,1003.22,36.4,0
"2021-01-17 07:47:39+00",20.4,22.4,,36.8,-860,-219,32,1003.37,36.2,0
"2021-01-17 07:52:39+00",21.5,25.5,,36.8,-876,-313,32,1003.36,36.2,0
"2021-01-17 07:57:39+00",22.7,28.7,,36.7,-946,-347,35,1003.45,36.1,0
"2021-01-17 08:02:39+00",20.0,23.0,,36.6,-827,-210,43,1003.59,36.1,0
"2021-01-17 08:07:39+00",19.6,23.6,,36.5,-812,-239,42,1003.65,36,0
"2021-01-17 08:12:39+00",17.2,19.2,,36.4,-718,-190,27,1003.76,36,0
"2021-01-17 08:17:39+00",19.5,22.5,,36.4,-823,-200,25,1003.85,35.9,0
"2021-01-17 08:22:39+00",19.8,23.8,,36.4,-833,-243,25,1003.76,35.9,0
"2021-01-17 08:27:39+00",21.1,24.1,,36.4,-877,-258,27,1003.75,35.8,0
"2021-01-17 08:32:39+00",19.1,22.1,,36.3,-817,-185,25,1003.8,35.8,0
"2021-01-17 08:37:39+00",19.0,22.0,,36.2,-775,-320,42,1003.88,35.7,0
"2021-01-17 08:42:39+00",19.5,22.5,,36.2,-814,-309,37,1003.9,35.6,0
"2021-01-17 08:47:39+00",20.7,24.7,,36.2,-851,-261,14,1003.96,35.6,0
"2021-01-17 08:52:39+00",18.8,21.8,,36,-793,-214,48,1003.94,35.5,0
"2021-01-17 08:57:39+00",18.0,21.0,,35.9,-754,-159,43,1003.9,35.4,0
"2021-01-17 09:02:39+00",22.2,25.2,,36,-965,-229,21,1004.08,35.4,0
"2021-01-17 09:07:39+00",20.1,23.1,,36,-840,-244,38,1004.09,35.3,0
"2021-01-17 09:12:39+00",20.0,24.0,,35.9,-826,-281,43,1004.05,35.3,0
"2021-01-17 09:17:39+00",22.7,27.7,,35.9,-946,-241,30,1004.09,35.3,0
"2021-01-17 09:22:39+00",20.4,26.4,,35.9,-866,-250,33,1004.26,35.3,0
"2021-01-17 09:27:39+00",20.8,24.8,,35.9,-866,-267,60,1004.35,35.3,0
"2021-01-17 09:32:39+00",20.6,23.6,,35.9,-860,-306,30,1004.39,35.2,0
"2021-01-17 09:37:39+00",20.7,23.7,,35.8,-844,-305,40,1004.46,35.2,0
"2021-01-17 09:42:39+00",20.7,23.7,,35.7,-849,-275,46,1004.48,35.1,0
"2021-01-17 09:47:39+00",23.6,26.6,,35.8,-1012,-290,39,1004.4,35.1,0
"2021-01-17 09:52:39+00",21.3,25.3,,35.8,-882,-254,22,1004.43,35,0
"2021-01-17 09:57:39+00",18.2,20.2,,35.7,-766,-211,29,1004.57,35,0
"2021-01-17 10:02:39+00",20.0,24.0,,35.8,-883,-150,36,1004.35,35,0
"2021-01-17 10:07:39+00",17.8,20.8,,35.6,-761,-142,38,1004.29,35,0
"2021-01-17 10:12:39+00",15.3,19.3,,35.5,-647,-166,63,1004.28,34.9,0
"2021-01-17 10:17:39+00",17.3,22.3,,35.6,-695,-230,61,1004.36,34.9,0
"2021-01-17 10:22:39+00",19.3,22.3,,35.6,-802,-239,40,1004.48,34.8,0
"2021-01-17 10:27:39+00",18.8,21.8,,35.6,-774,-330,28,1004.72,34.8,0
"2021-01-17 10:32:39+00",19.0,23.0,,35.6,-762,-322,40,1004.79,34.8,0
"2021-01-17 10:37:39+00",17.2,21.2,,35.5,-736,-383,7,1004.94,34.8,0
"2021-01-17 10:42:39+00",19.4,22.4,,35.5,-812,-404,22,1004.99,34.7,0
"2021-01-17 10:47:39+00",18.0,23.0,,35.4,-742,-388,44,1005.04,34.7,0
"2021-01-17 10:52:39+00",20.3,24.3,,35.4,-807,-326,35,1005.06,34.6,0
"2021-01-17 10:57:39+00",19.0,22.0,,35.3,-779,-273,49,1004.99,34.6,0
"2021-01-17 11:02:39+00",19.3,23.3,,35.3,-820,-249,26,1004.95,34.5,0
"2021-01-17 11:07:39+00",18.1,20.1,,35.3,-787,-85,47,1004.91,34.4,0
"2021-01-17 11:12:39+00",18.1,23.1,,35.4,-747,-210,58,1005.07,34.5,0
"2021-01-17 11:17:39+00",21.3,23.3,,35.5,-893,-258,33,1005.23,34.5,0
"2021-01-17 11:22:39+00",18.0,21.0,,35.4,-732,-284,19,1005.21,34.5,0
"2021-01-17 11:27:39+00",16.8,21.8,,35.1,-710,-321,39,1005.27,34.4,0
"2021-01-17 11:32:39+00",19.8,22.8,,35.2,-824,-349,22,1005.29,34.4,0
"2021-01-17 11:37:39+00",17.9,19.9,,35.2,-760,-358,67,1005.32,34.4,0
"2021-01-17 11:42:39+00",17.9,20.9,,35.1,-766,-415,16,1005.48,34.3,0
"2021-01-17 11:47:39+00",16.2,18.2,,35.1,-658,-363,44,1005.49,34.3,0
"2021-01-17 11:52:39+00",18.1,20.1,,35.2,-765,-434,48,1005.57,34.4,0
"2021-01-17 11:57:39+00",16.9,19.9,,35.3,-685,-414,43,1005.84,34.5,0
"2021-01-17 12:02:39+00",20.0,24.0,,35.3,-765,-524,17,1005.88,34.7,0
"2021-01-17 12:07:39+00",20.0,23.0,,35.4,-739,-526,50,1005.96,34.9,0
"2021-01-17 12:12:39+00",20.0,23.0,,35.5,-847,-519,37,1005.89,35,0
"2021-01-17 12:17:39+00",19.5,21.5,,35.5,-774,-506,21,1005.83,35,0
"2021-01-17 12:22:39+00",19.3,22.3,,35.5,-762,-516,26,1005.81,35.1,0
"2021-01-17 12:27:39+00",19.6,24.6,,35.6,-821,-430,33,1005.9,35.1,0
"2021-01-17 12:32:39+00",21.6,26.6,,35.6,-910,-439,11,1005.89,35.1,0
"2021-01-17 12:37:39+00",20.2,23.2,,35.6,-843,-397,22,1005.89,35.1,0
"2021-01-17 12:42:39+00",20.0,26.0,,35.7,-842,-363,37,1005.96,35.2,0
"2021-01-17 12:47:39+00",17.6,20.6,,35.8,-726,-424,46,1006,35.6,0
"2021-01-17 12:52:39+00",20.1,24.1,,35.8,-833,-424,37,1005.98,36.1,0
"2021-01-17 12:57:39+00",18.1,21.1,,35.9,-765,-426,42,1006.08,36.5,0
"2021-01-17 13:02:39+00",18.5,21.5,,36,-762,-414,27,1006.1,36.5,0
"2021-01-17 13:07:39+00",20.3,23.3,,36.1,-851,-447,14,1006.32,36.3,0
"2021-01-17 13:12:39+00",18.4,21.4,,36.2,-751,-374,32,1006.32,36.3,0
"2021-01-17 13:17:39+00",17.8,20.8,,36.4,-738,-372,32,1006.42,36.4,0
"2021-01-17 13:22:39+00",19.1,24.1,,36.6,-782,-373,47,1006.51,36.5,0
"2021-01-17 13:27:39+00",19.4,24.4,,36.7,-816,-405,26,1006.59,36.6,0
"2021-01-17 13:32:39+00",18.4,20.4,,36.8,-759,-336,59,1006.65,36.7,0
"2021-01-17 13:37:39+00",18.5,22.5,,36.9,-797,-469,13,1006.7,36.8,0
"2021-01-17 13:42:39+00",16.7,19.7,,37.1,-664,-421,18,1006.75,37.2,0
"2021-01-17 13:47:39+00",17.5,23.5,,37.5,-742,-400,40,1006.76,38.3,0
"2021-01-17 13:52:39+00",16.5,19.5,,37.3,-657,-415,23,1006.64,38.9,0
"2021-01-17 13:57:39+00",20.0,23.0,,37.6,-844,-357,45,1006.71,39.5,0
"2021-01-17 14:02:39+00",18.3,20.3,,37.8,-770,-210,38,1006.69,40,0
"2021-01-17 14:07:39+00",20.3,23.3,,37.8,-836,-292,38,1006.79,40.3,0
"2021-01-17 14:12:39+00",17.2,19.2,,37.9,-740,-191,47,1006.67,40.6,0
"2021-01-17 14:17:39+00",20.0,25.0,,38,-819,-299,42,1006.7,40.9,0
"2021-01-17 14:22:39+00",19.3,22.3,,38.2,-836,-170,44,1006.77,41.1,0
"2021-01-17 14:27:39+00",22.7,25.7,,38.3,-955,-241,16,1006.77,41.2,0
"2021-01-17 14:32:39+00",18.9,23.9,,38.6,-803,-112,55,1006.92,41.4,0
"2021-01-17 14:37:39+00",21.1,25.1,,38.8,-930,-76,62,1006.88,41.4,0
"2021-01-17 14:42:39+00",20.1,23.1,,38.8,-849,-224,36,1006.98,41.5,0
"2021-01-17 14:47:39+00",21.2,23.2,,39.3,-949,22,48,1007.02,41.8,0
"2021-01-17 14:52:39+00",21.4,25.4,,39.2,-913,-237,21,1006.96,42.2,0
"2021-01-17 14:57:39+00",20.3,22.3,,39.6,-887,-100,27,1006.98,42.3,0
"2021-01-17 15:02:39+00",23.3,25.3,,40,-996,-207,48,1006.94,42.5,0
"2021-01-17 15:07:39+00",19.7,23.7,,40.2,-886,-97,16,1006.96,42.7,0
"2021-01-17 15:12:39+00",22.0,25.0,,40.4,-961,-158,16,1006.93,43.1,0
"2021-01-17 15:17:39+00",22.7,24.7,,40.5,-960,-282,31,1006.97,43.2,0
"2021-01-17 15:22:39+00",21.2,23.2,,40.7,-889,-255,59,1006.9,43.4,0
"2021-01-17 15:27:39+00",25.4,27.4,,41,-1124,-138,10,1006.74,43.6,0
"2021-01-17 15:32:39+00",24.7,28.7,,41,-1089,-157,25,1006.67,43.5,0
"2021-01-17 15:37:39+00",27.2,30.2,,41.3,-1200,-173,33,1006.49,43.4,0
"2021-01-17 15:42:39+00",25.2,29.2,,41.4,-1115,-49,63,1006.51,43.4,0
"2021-01-17 15:47:39+00",22.0,25.0,,41.4,-984,143,43,1006.46,43.3,0
"2021-01-17 15:52:39+00",23.3,26.3,,41.3,-1046,67,34,1006.37,43.4,0
"2021-01-17 15:57:39+00",24.5,29.5,,41.4,-1085,59,63,1006.35,43.3,0
"2021-01-17 16:02:39+00",25.9,27.9,,41.3,-1164,80,64,1006.19,43.1,0
"2021-01-17 16:07:39+00",23.4,30.4,,41.4,-1060,113,62,1006.11,43.2,0
"2021-01-17 16:12:39+00",21.3,24.3,,41.4,-969,31,40,1005.98,43.3,0
"2021-01-17 16:17:39+00",20.0,23.0,,41.7,-894,59,46,1005.85,43.4,0
"2021-01-17 16:22:39+00",23.4,26.4,,41.7,-1046,-109,32,1005.85,43.7,0
"2021-01-17 16:27:39+00",21.6,23.6,,41.9,-960,47,42,1005.71,43.9,0
"2021-01-17 16:32:39+00",21.0,23.0,,41.7,-941,2,42,1005.73,43.6,0
"2021-01-17 16:37:39+00",18.7,21.7,,42.1,-837,44,32,1005.7,43.7,0
"2021-01-17 16:42:39+00",20.6,23.6,,42.2,-872,-230,50,1005.63,44.3,0
"2021-01-17 16:47:39+00",23.0,27.0,,42.5,-1020,-86,50,1005.43,44.9,0
"2021-01-17 16:52:39+00",21.2,27.2,,42.3,-942,13,68,1005.42,44.6,0
"2021-01-17 16:57:39+00",22.2,25.2,,41.9,-971,54,44,1005.38,44.2,0
"2021-01-17 17:02:39+00",24.1,26.1,,41.9,-1067,-158,20,1005.33,44.3,0
"2021-01-17 17:07:39+00",20.6,24.6,,42.2,-916,-52,47,1005.2,44.5,0
"2021-01-17 17:12:39+00",20.0,23.0,,42,-894,-40,67,1005.28,44.4,0
"2021-01-17 17:17:39+00",21.4,26.4,,41.9,-946,44,28,1005.21,43.9,0
"2021-01-17 17:22:39+00",23.2,27.2,,42.5,-1009,-167,15,1004.98,44,0
"2021-01-17 17:27:39+00",20.5,24.5,,42.7,-925,116,59,1004.87,44.5,0
"2021-01-17 17:32:39+00",23.2,28.2,,42.7,-1047,105,63,1004.79,44.7,0
"2021-01-17 17:37:39+00",24.1,28.1,,42.6,-1062,43,72,1004.86,44.5,0
"2021-01-17 17:42:39+00",27.1,30.1,,42.9,-1218,232,70,1004.75,44.6,0
"2021-01-17 17:47:39+00",21.3,25.3,,43,-937,275,55,1004.85,45,0
"2021-01-17 17:52:39+00",23.1,26.1,,42.8,-1011,291,54,1004.88,44.7,0
"2021-01-17 17:57:39+00",20.8,23.8,,42.8,-946,227,49,1005.02,44.3,0
"2021-01-17 18:02:39+00",22.3,28.3,,42.9,-983,204,81,1005.08,43.9,0
"2021-01-17 18:07:39+00",26.8,29.8,,43,-1219,167,36,1004.97,43.7,0
"2021-01-17 18:12:39+00",25.3,28.3,,43.3,-1112,274,53,1004.99,43.9,0
"2021-01-17 18:17:39+00",26.0,30.0,,43.3,-1143,315,38,1005.08,44,0
"2021-01-17 18:22:39+00",22.5,26.5,,43,-992,342,36,1005.13,43.8,0
"2021-01-17 18:27:39+00",20.9,24.9,,43.3,-905,275,51,1005.36,43.8,0
"2021-01-17 18:32:39+00",21.7,25.7,,43.3,-990,79,23,1005.11,44.1,0
"2021-01-17 18:37:39+00",19.4,23.4,,43.6,-869,119,55,1005.06,44.7,0
"2021-01-17 18:42:39+00",21.1,24.1,,43.4,-912,289,20,1005.07,45,0
"2021-01-17 18:47:39+00",17.9,20.9,,43.2,-789,184,55,1005.2,44.9,0
"2021-01-17 18:52:39+00",17.4,19.4,,43.4,-773,157,34,1005.22,44.7,0
"2021-01-17 18:57:39+00",17.3,20.3,,43.3,-758,197,51,1005.2,44.6,0
"2021-01-17 19:02:39+00",19.5,21.5,,43.4,-865,203,46,1005.37,44.3,0
"2021-01-17 19:07:39+00",20.3,25.3,,43.4,-924,129,68,1005.34,44,0
"2021-01-17 19:12:39+00",19.7,22.7,,43.5,-873,85,30,1005.52,43.8,0
"2021-01-17 19:17:39+00",18.0,22.0,,43.6,-792,-17,43,1005.55,43.8,0
"2021-01-17 19:22:39+00",17.9,20.9,,43.8,-828,12,48,1005.46,44.1,0
"2021-01-17 19:27:39+00",17.5,20.5,,44.2,-765,105,61,1005.52,44.7,0
"2021-01-17 19:32:39+00",14.5,16.5,,44.5,-650,95,48,1005.48,45.7,0
"2021-01-17 19:37:39+00",18.4,20.4,,44.3,-815,185,43,1005.3,46.2,0
"2021-01-17 19:42:39+00",19.5,21.5,,44.4,-864,103,38,1005.2,46.4,0
"2021-01-17 19:47:39+00",17.7,18.7,,44.3,-787,162,46,1005.17,46.5,0
"2021-01-17 19:52:39+00",19.6,21.6,,44.5,-885,24,32,1005.09,46.7,0
"2021-01-17 19:57:39+00",13.6,15.6,,44.5,-598,-9,50,1005.05,46.9,0
"2021-01-17 20:02:39+00",19.0,23.0,,44.4,-852,-59,28,1005.09,46.7,0
"2021-01-17 20:07:39+00",17.0,21.0,,44.5,-755,-55,47,1005.2,46.4,0
"2021-01-17 20:12:39+00",16.9,18.9,,44.5,-761,1,22,1005.2,46.4,0
"2021-01-17 20:17:39+00",18.2,20.2,,44.6,-812,-30,22,1005.25,46.6,0
"2021-01-17 20:22:39+00",14.3,17.3,,44.7,-621,-85,22,1005.3,46.7,0
"2021-01-17 20:27:39+00",14.5,16.5,,44.7,-621,-129,27,1005.29,46.9,0
"2021-01-17 20:32:39+00",12.9,15.9,,44.4,-567,-78,23,1005.44,46.8,0
"2021-01-17 20:37:39+00",16.9,20.9,,44.5,-711,-169,22,1005.52,46.4,0
"2021-01-17 20:42:39+00",15.1,18.1,,44.5,-647,-133,36,1005.56,46.3,0
"2021-01-17 20:47:39+00",18.6,21.6,,44.7,-799,-162,33,1005.62,46.3,0
"2021-01-17 20:52:39+00",16.1,19.1,,44.7,-725,-28,28,1005.66,46.4,0
"2021-01-17 20:57:39+00",15.5,17.5,,44.4,-695,93,47,1005.7,46.2,0
"2021-01-17 21:02:39+00",12.2,15.2,,44,-531,-52,23,1005.92,45.6,0
"2021-01-17 21:07:39+00",12.7,13.7,,43.9,-548,-77,12,1005.95,45.3,0
"2021-01-17 21:12:39+00",14.6,17.6,,44.2,-625,-165,17,1006.05,45.2,0
"2021-01-17 21:17:39+00",12.9,14.9,,44.1,-552,-75,30,1006.23,44.9,0
"2021-01-17 21:22:39+00",15.7,17.7,,44.1,-655,-187,20,1006.2,44.6,0
"2021-01-17 21:27:39+00",14.6,16.6,,44.1,-625,-128,30,1006.32,44.3,0
"2021-01-17 21:32:39+00",15.7,18.7,,44.1,-698,-85,24,1006.46,44,0
"2021-01-17 21:37:39+00",16.6,19.6,,44.1,-751,-18,31,1006.52,43.8,0
"2021-01-17 21:42:39+00",14.9,16.9,,44.1,-658,-92,18,1006.61,43.7,0
"2021-01-17 21:47:39+00",18.4,21.4,,44.1,-808,-110,27,1006.54,43.5,0
"2021-01-17 21:52:39+00",15.0,16.0,,43.9,-640,-137,31,1006.65,43.4,0
"2021-01-17 21:57:39+00",14.3,17.3,,43.9,-628,-106,19,1006.66,43.2,0
"2021-01-17 22:02:39+00",14.8,15.8,,43.9,-651,-78,30,1006.65,43.2,0
"2021-01-17 22:07:39+00",14.5,17.5,,43.9,-633,-70,27,1006.79,43.1,0
"2021-01-17 22:12:39+00",14.5,16.5,,43.8,-662,10,22,1006.87,43,0
"2021-01-17 22:17:39+00",16.2,20.2,,43.9,-731,83,22,1006.9,42.9,0
"2021-01-17 22:22:39+00",15.4,19.4,,43.9,-672,95,55,1007.08,43,0
"2021-01-17 22:27:39+00",13.6,14.6,,43.6,-610,69,16,1007.11,42.9,0
"2021-01-17 22:32:39+00",16.4,19.4,,43.7,-733,83,33,1007.25,42.8,0
"2021-01-17 22:37:39+00",14.0,16.0,,43.6,-630,28,15,1007.43,42.8,0
"2021-01-17 22:42:39+00",15.4,17.4,,43.6,-702,53,10,1007.47,42.7,0
"2021-01-17 22:47:39+00",12.9,14.9,,43.5,-573,2,5,1007.59,42.6,0
"2021-01-17 22:52:39+00",11.8,12.8,,43.4,-535,-25,6,1007.61,42.5,0
"2021-01-17 22:57:39+00",10.9,12.9,,43.3,-487,-27,25,1007.62,42.4,0
"2021-01-17 23:02:39+00",10.4,12.4,,43.2,-450,-44,13,1007.57,42.3,0
"2021-01-17 23:07:39+00",9.8,10.8,,43.2,-423,-65,18,1007.72,42.2,0
"2021-01-17 23:12:39+00",11.6,12.6,,43.4,-505,-84,2,1007.68,42.1,0
"2021-01-17 23:17:39+00",10.7,11.7,,43.2,-455,-101,5,1007.81,42.1,0
"2021-01-17 23:22:39+00",10.6,12.6,,43.1,-459,-84,27,1007.93,42.1,0
"2021-01-17 23:27:39+00",10.5,11.5,,43,-441,-81,11,1007.99,42,0
"2021-01-17 23:32:39+00",8.7,9.7,,43.1,-363,-89,10,1008.07,42,0
"2021-01-17 23:37:39+00",7.1,8.1,,42.7,-289,-113,5,1007.95,41.9,0
"2021-01-17 23:42:39+00",7.4,8.4,,42.7,-299,-107,1,1007.92,41.8,0
"2021-01-17 23:47:39+00",7.5,8.5,,42.7,-302,-132,9,1007.81,41.7,0
"2021-01-17 23:52:39+00",8.4,9.4,,42.7,-341,-208,12,1007.95,41.5,0
"2021-01-17 23:57:39+00",9.1,10.1,,42.7,-385,-203,2,1008.06,41.4,0
